Temp
68 68 67 67 67 66 66 65 65 65 65 65 65 65 65 65 64 65 65 65 65 66 66 65 65 66 69 66 68 76 79 78 76 76 72 71 68 66 61 63 64 62 61 62 63 61 62
68 68 67 67 67 66 66 66 65 65 65 65 65 65 65 64 64 64 64 64 65 65 64 65 65 65 67 60 74 75 74 75 76 75 71 71 68 68 64 62 61 62 62 62 62 62 62
68 68 67 67 67 67 66 66 65 65 64 64 65 65 65 64 63 63 64 64 64 64 64 65 66 68 64 68 74 74 75 72 73 74 71 71 71 69 65 61 63 62 59 60 60 61 60
68 68 68 67 67 67 66 66 65 64 64 64 65 65 64 63 63 63 63 63 63 64 64 65 66 66 63 73 73 74 75 74 75 75 72 71 71 66 65 64 61 58 57 54 60 60 59
68 68 67 67 67 67 66 66 65 64 64 64 64 64 63 63 62 63 62 63 64 65 66 67 64 63 62 75 70 72 74 72 72 72 71 74 68 61 62 57 55 53 53 53 56 59 59
68 67 67 67 66 66 66 66 65 64 64 63 63 62 62 62 62 62 62 63 64 65 67 70 70 61 65 64 68 70 71 73 69 68 67 65 59 57 54 55 50 51 52 52 52 57 56
66 67 67 66 66 66 66 66 65 64 63 63 62 62 61 62 62 61 58 60 62 61 62 62 61 60 63 67 70 68 70 69 68 64 57 58 57 53 55 55 54 53 51 50 54 56 54
66 66 66 66 65 65 65 65 64 64 63 63 62 62 61 61 61 60 55 58 57 58 54 63 62 63 66 67 62 65 70 63 60 55 56 56 52 56 57 55 54 53 51 51 53 54 54
65 65 65 65 65 66 65 65 64 64 63 63 62 62 61 61 60 57 54 58 60 60 53 58 61 63 65 68 62 63 68 61 57 53 54 52 56 57 56 53 52 51 50 49 50 52 53
64 65 65 65 64 64 65 64 63 63 63 62 62 61 62 61 56 53 55 58 58 59 46 52 57 63 65 66 59 65 65 63 57 54 53 54 56 55 53 52 52 48 52 51 50 50 50
64 64 64 64 64 63 63 63 63 63 62 61 61 61 60 60 51 52 57 57 57 61 36 54 56 66 61 62 60 60 64 62 55 54 55 51 52 51 51 52 53 51 52 50 50 48 48
63 63 63 63 63 63 62 62 63 62 62 61 61 60 58 55 51 54 56 55 59 47 37 49 56 55 56 56 56 59 59 63 59 54 53 51 55 54 54 53 52 52 51 49 46 46 46
62 62 62 62 63 63 62 61 62 63 62 61 61 60 57 58 51 54 55 56 45 37 51 48 50 53 51 51 52 54 53 51 50 45 45 49 50 52 54 51 53 51 47 43 46 45 45
62 62 61 61 62 62 62 62 61 62 62 61 59 59 57 57 53 55 53 49 35 45 45 52 50 50 49 52 50 50 49 48 49 49 43 44 44 50 52 51 50 48 48 44 43 42 45
61 61 61 61 61 61 62 62 61 61 61 59 57 50 49 52 55 55 48 38 42 44 51 49 50 46 46 49 49 48 47 46 50 51 49 43 44 49 49 50 52 48 46 49 42 40 42
61 61 61 61 60 60 61 62 62 61 59 57 53 49 48 53 55 50 42 46 46 51 52 50 47 47 42 45 46 45 45 50 51 52 53 50 43 46 48 51 50 50 51 46 44 40 41
61 61 61 60 60 59 60 61 62 62 58 56 54 48 51 53 54 44 38 42 50 54 55 51 48 44 45 45 45 43 46 50 51 48 51 48 48 42 47 46 46 45 45 44 45 43 43
61 61 60 60 60 59 59 60 61 61 56 54 49 44 49 54 40 38 40 46 52 54 52 52 50 49 47 46 44 44 46 48 52 51 50 49 46 40 45 46 48 47 47 47 43 42 38
61 60 60 60 60 59 58 59 60 59 55 50 46 47 50 50 35 35 41 48 50 51 52 51 50 52 49 46 46 46 46 51 50 52 51 51 46 41 43 45 45 45 45 44 42 41 39
60 60 60 60 59 58 58 58 58 58 56 53 45 40 44 46 42 41 41 42 48 51 51 53 52 51 48 47 46 45 47 50 49 51 57 56 44 45 44 45 44 41 42 43 47 41 41
59 59 59 59 59 58 58 58 58 58 57 51 45 43 47 36 40 41 45 45 46 47 50 52 49 52 50 45 44 46 46 46 48 54 49 52 46 43 45 47 46 46 44 41 43 47 50
58 58 59 59 59 58 58 58 58 57 56 51 45 43 45 43 47 43 41 41 45 49 48 48 46 50 51 48 50 47 47 47 50 45 49 46 45 43 43 45 45 45 46 44 46 45 45
58 58 58 58 58 57 57 57 57 57 55 49 48 47 46 45 44 42 45 45 47 49 50 56 53 50 46 50 54 52 53 52 52 49 45 44 43 42 41 41 43 41 47 44 44 46 52
57 57 57 57 57 57 57 57 57 56 55 52 48 47 44 42 44 44 48 49 48 50 51 51 55 50 53 54 53 53 51 48 48 46 47 42 43 40 38 40 36 51 49 51 54 57 51
57 57 57 57 57 56 56 57 57 57 56 52 53 47 45 41 46 46 49 49 51 53 50 53 50 55 53 53 46 44 42 43 45 45 45 45 41 35 37 36 43 50 48 48 48 53 56
56 57 57 57 57 56 56 56 56 56 56 52 51 53 48 43 43 51 48 51 48 48 49 46 48 50 53 46 42 39 36 41 39 38 41 42 43 44 32 35 36 48 50 52 56 49 60
56 56 57 57 57 56 56 56 56 56 56 53 51 54 49 44 48 50 46 47 53 51 47 47 48 46 49 41 38 35 43 45 39 35 35 37 35 38 35 34 41 50 51 51 48 53 57
55 56 56 56 56 56 56 56 56 56 56 52 49 54 49 45 47 51 54 51 52 53 46 48 49 45 37 39 41 37 37 43 42 40 37 38 35 33 32 35 40 51 49 53 58 55 57
55 55 56 56 56 55 55 55 55 56 56 55 46 53 54 46 46 52 55 58 57 59 56 52 53 47 51 45 41 41 36 36 43 42 38 43 46 46 45 47 54 51 56 58 55 58 57
MSLP
1024.31 1024.39 1024.50 1024.47 1024.42 1024.43 1024.34 1024.31 1024.28 1024.17 1024.05 1023.86 1023.71 1023.52 1023.25 1023.00 1022.80 1022.52 1022.19 1021.82 1021.43 1021.05 1020.63 1020.27 1020.00 1019.62 1019.03 1018.95 1018.20 1017.57 1017.43 1017.38 1017.34 1017.45 1017.90 1018.18 1018.56 1019.00 1019.59 1019.96 1020.19 1020.42 1020.74 1020.85 1020.99 1021.15 1021.32
1024.05 1024.04 1024.13 1024.27 1024.28 1024.22 1024.23 1024.18 1024.20 1024.15 1024.01 1023.86 1023.68 1023.52 1023.32 1023.05 1022.77 1022.45 1022.12 1021.71 1021.29 1020.86 1020.54 1020.18 1019.91 1019.65 1019.37 1018.77 1017.61 1017.52 1017.43 1017.41 1017.59 1017.71 1018.10 1018.30 1018.73 1018.99 1019.62 1020.11 1020.41 1020.63 1020.77 1020.95 1021.10 1021.29 1021.45
1023.73 1023.75 1023.76 1023.86 1023.94 1024.10 1024.04 1024.04 1024.01 1024.03 1024.00 1023.85 1023.64 1023.47 1023.29 1023.04 1022.74 1022.37 1021.92 1021.49 1021.11 1020.66 1020.31 1020.05 1019.85 1019.74 1019.30 1018.20 1017.54 1017.50 1017.35 1017.59 1017.76 1017.89 1018.22 1018.48 1018.67 1019.05 1019.69 1020.32 1020.62 1020.72 1020.96 1021.02 1021.20 1021.40 1021.57
1023.24 1023.33 1023.41 1023.52 1023.61 1023.71 1023.78 1023.83 1023.75 1023.78 1023.81 1023.81 1023.64 1023.41 1023.23 1023.04 1022.71 1022.27 1021.76 1021.21 1020.76 1020.41 1019.98 1019.88 1019.77 1019.68 1018.79 1017.55 1017.54 1017.43 1017.42 1017.72 1017.84 1017.99 1018.28 1018.56 1018.67 1019.37 1020.02 1020.54 1020.98 1021.18 1021.36 1021.49 1021.33 1021.46 1021.63
1022.87 1022.71 1022.95 1023.08 1023.19 1023.33 1023.48 1023.52 1023.61 1023.54 1023.60 1023.62 1023.57 1023.41 1023.19 1023.00 1022.72 1022.22 1021.54 1020.82 1020.27 1019.97 1019.74 1019.72 1019.82 1019.57 1018.54 1017.52 1017.57 1017.51 1017.48 1017.77 1017.99 1018.32 1018.63 1018.72 1019.13 1020.28 1020.59 1020.99 1021.54 1021.77 1021.76 1021.80 1021.62 1021.62 1021.72
1022.58 1022.59 1022.54 1022.71 1022.82 1022.91 1023.06 1023.23 1023.27 1023.38 1023.33 1023.47 1023.46 1023.35 1023.17 1022.94 1022.70 1022.21 1021.38 1020.26 1019.85 1019.76 1019.67 1019.67 1019.71 1019.79 1018.45 1017.94 1017.66 1017.65 1017.67 1017.81 1018.27 1018.60 1018.99 1019.38 1020.21 1020.83 1021.43 1021.41 1021.84 1022.07 1022.04 1022.01 1022.03 1021.98 1021.76
1022.54 1022.52 1022.48 1022.53 1022.59 1022.63 1022.64 1022.75 1023.02 1023.11 1023.11 1023.16 1023.32 1023.26 1023.10 1022.92 1022.69 1022.34 1021.60 1020.30 1020.54 1020.45 1020.00 1019.43 1019.25 1018.95 1018.33 1017.99 1017.75 1017.85 1017.90 1018.09 1018.55 1019.11 1019.84 1020.39 1020.80 1021.13 1021.40 1021.44 1021.59 1021.88 1022.13 1022.22 1021.98 1022.08 1022.05
1022.60 1022.44 1022.40 1022.43 1022.40 1022.46 1022.48 1022.52 1022.64 1022.82 1022.99 1022.91 1023.06 1023.12 1023.02 1022.91 1022.68 1022.42 1022.41 1021.71 1021.70 1022.34 1020.90 1019.08 1019.04 1018.75 1018.30 1017.97 1018.06 1018.04 1018.06 1018.60 1019.01 1019.82 1020.30 1020.85 1021.04 1020.97 1021.14 1021.35 1021.55 1021.86 1022.14 1022.27 1022.08 1022.03 1022.13
1022.52 1022.42 1022.20 1022.17 1022.19 1022.14 1022.22 1022.31 1022.44 1022.55 1022.72 1022.74 1022.80 1022.93 1022.93 1022.79 1022.69 1022.59 1022.52 1021.94 1021.73 1021.65 1021.41 1019.31 1018.54 1018.21 1017.96 1018.10 1018.16 1018.24 1018.38 1018.88 1019.39 1020.05 1020.47 1020.89 1020.98 1020.95 1021.12 1021.48 1021.79 1022.06 1022.29 1022.44 1022.59 1022.15 1021.95
1022.44 1022.28 1022.09 1021.77 1021.88 1021.91 1021.87 1022.05 1022.23 1022.39 1022.47 1022.70 1022.59 1022.70 1022.85 1022.72 1023.05 1022.98 1022.54 1022.07 1021.66 1021.51 1021.29 1019.40 1018.35 1017.50 1017.61 1017.90 1018.49 1018.39 1018.43 1018.90 1019.68 1020.25 1020.72 1020.95 1020.88 1021.04 1021.32 1021.56 1021.85 1022.24 1022.23 1022.46 1022.57 1022.40 1021.93
1022.36 1022.25 1022.13 1021.74 1021.52 1021.56 1021.68 1021.58 1021.80 1022.03 1022.24 1022.34 1022.57 1022.65 1022.75 1022.86 1023.48 1023.27 1022.69 1022.10 1021.62 1021.17 1021.34 1019.04 1018.11 1017.53 1017.77 1018.07 1018.65 1018.80 1018.73 1018.84 1019.69 1020.40 1020.97 1021.06 1021.05 1021.20 1021.47 1021.55 1021.81 1022.35 1022.42 1022.65 1022.63 1022.40 1021.96
1022.08 1021.95 1021.90 1021.73 1021.46 1021.35 1021.27 1021.38 1021.24 1021.40 1021.92 1022.13 1022.36 1022.59 1022.81 1023.09 1023.53 1023.03 1022.53 1022.07 1021.75 1021.73 1020.41 1018.77 1018.15 1017.99 1018.27 1018.60 1018.93 1019.19 1019.17 1019.33 1019.98 1020.62 1020.99 1021.23 1021.18 1021.26 1021.46 1021.92 1022.18 1022.60 1022.77 1022.84 1022.73 1022.39 1021.99
1021.97 1021.77 1021.57 1021.46 1021.34 1021.20 1021.00 1021.08 1020.81 1020.87 1021.28 1021.89 1022.13 1022.38 1022.82 1022.72 1023.12 1022.85 1022.47 1022.19 1022.66 1021.81 1019.60 1019.11 1018.69 1018.64 1018.87 1019.26 1019.48 1019.48 1019.82 1020.21 1020.59 1021.39 1021.64 1021.65 1021.53 1021.56 1021.70 1022.37 1022.67 1022.77 1022.96 1023.02 1022.94 1022.52 1021.72
1021.59 1021.58 1021.51 1021.38 1021.21 1020.95 1020.83 1020.77 1020.73 1020.47 1020.72 1021.41 1021.90 1022.28 1022.59 1022.58 1022.70 1022.76 1022.73 1022.78 1022.11 1019.87 1019.20 1018.93 1018.94 1019.23 1019.55 1019.55 1019.91 1020.11 1020.46 1020.85 1020.94 1021.09 1021.87 1021.95 1022.12 1021.91 1021.87 1022.06 1022.42 1023.03 1022.97 1022.86 1022.64 1022.55 1021.68
1021.17 1021.19 1021.15 1021.06 1020.91 1020.77 1020.55 1020.47 1020.45 1020.27 1020.28 1021.08 1021.90 1022.78 1022.75 1022.23 1022.62 1022.96 1023.25 1022.84 1020.38 1019.36 1018.57 1018.70 1019.16 1019.70 1020.00 1020.01 1020.24 1020.63 1020.87 1020.87 1020.50 1020.62 1020.97 1021.67 1021.88 1021.99 1022.09 1022.19 1022.49 1023.14 1023.17 1022.91 1022.76 1023.03 1022.00
1020.69 1020.73 1020.68 1020.59 1020.55 1020.44 1020.36 1020.09 1020.11 1020.10 1020.05 1020.78 1021.52 1022.59 1022.33 1021.46 1022.11 1023.04 1023.45 1021.34 1019.75 1018.45 1018.11 1018.28 1018.54 1019.08 1019.98 1020.44 1020.79 1021.12 1021.07 1019.71 1019.75 1019.61 1019.64 1020.67 1021.56 1022.22 1022.39 1022.47 1022.82 1022.83 1023.07 1023.29 1023.04 1022.82 1021.82
1019.99 1020.09 1020.09 1020.06 1020.01 1020.05 1019.96 1019.92 1019.80 1019.91 1020.08 1020.56 1021.30 1021.99 1021.67 1021.50 1021.80 1022.85 1022.32 1020.60 1019.18 1018.11 1017.74 1017.82 1018.11 1019.02 1019.43 1020.06 1020.53 1021.04 1020.64 1019.59 1019.38 1019.93 1019.86 1020.41 1021.04 1022.70 1022.67 1022.44 1022.39 1023.21 1023.32 1023.52 1023.38 1022.77 1021.54
1019.21 1019.34 1019.40 1019.46 1019.37 1019.41 1019.59 1019.59 1019.50 1019.52 1020.10 1020.53 1021.45 1021.72 1021.60 1021.52 1022.30 1021.75 1021.16 1019.90 1018.46 1017.80 1017.67 1017.59 1017.72 1018.04 1018.73 1019.24 1020.12 1020.55 1020.04 1019.43 1019.03 1019.22 1020.04 1020.11 1020.76 1021.77 1021.88 1022.01 1022.18 1022.27 1022.35 1022.53 1022.90 1022.95 1022.25
1018.55 1018.59 1018.56 1018.69 1018.83 1018.83 1019.00 1019.17 1019.11 1019.30 1019.74 1020.09 1020.85 1021.48 1021.78 1021.70 1021.46 1021.21 1020.21 1019.29 1018.67 1017.75 1017.48 1017.55 1017.57 1017.59 1018.04 1018.68 1019.41 1019.14 1019.14 1018.65 1018.83 1018.91 1018.83 1019.47 1020.31 1021.15 1021.69 1022.32 1022.36 1022.30 1022.08 1022.10 1022.32 1022.12 1021.51
1017.58 1017.68 1017.82 1017.94 1018.03 1018.24 1018.44 1018.50 1018.71 1018.86 1019.10 1019.46 1020.50 1020.95 1021.56 1021.73 1020.59 1019.86 1019.46 1018.82 1018.19 1017.46 1017.19 1016.93 1016.98 1017.28 1017.81 1018.17 1018.49 1018.89 1018.93 1018.66 1018.80 1018.77 1018.53 1018.74 1019.55 1019.70 1019.73 1019.76 1020.31 1021.56 1021.45 1021.63 1021.33 1021.54 1020.59
1016.88 1016.93 1016.98 1017.03 1017.12 1017.46 1017.80 1017.92 1018.06 1018.38 1018.72 1019.32 1019.29 1018.53 1018.53 1019.49 1019.54 1019.49 1018.57 1017.54 1017.52 1017.27 1017.01 1016.60 1016.60 1016.60 1017.04 1017.84 1018.14 1018.28 1018.63 1018.78 1018.92 1018.72 1018.94 1019.04 1019.42 1019.54 1019.19 1019.18 1019.58 1019.83 1020.29 1020.89 1020.77 1019.67 1018.83
1015.90 1015.90 1016.02 1016.29 1016.37 1016.59 1016.97 1017.02 1017.38 1017.60 1018.22 1017.94 1017.38 1017.61 1017.63 1017.45 1017.41 1018.02 1017.80 1016.15 1016.02 1016.35 1016.13 1016.19 1016.38 1016.14 1016.40 1016.64 1016.52 1016.82 1017.56 1018.27 1017.94 1018.89 1019.07 1019.37 1019.44 1019.62 1019.37 1019.04 1019.22 1019.21 1019.11 1019.52 1019.54 1019.10 1017.97
1014.68 1014.88 1015.15 1015.45 1015.58 1015.83 1016.05 1016.33 1016.57 1016.86 1017.54 1016.60 1016.41 1016.75 1016.65 1015.83 1016.25 1016.64 1015.17 1015.15 1015.21 1015.59 1015.03 1014.98 1015.61 1015.97 1015.77 1015.62 1015.66 1015.67 1016.04 1016.32 1016.38 1017.31 1018.80 1019.37 1019.60 1020.00 1019.58 1019.05 1018.95 1018.36 1016.87 1017.47 1017.58 1016.71 1016.03
1013.76 1013.90 1014.08 1014.50 1014.70 1014.87 1015.20 1015.31 1015.60 1015.78 1016.18 1016.40 1015.84 1015.73 1016.07 1014.86 1014.74 1014.44 1013.99 1014.54 1014.29 1014.43 1014.31 1014.12 1014.57 1014.82 1014.71 1014.88 1015.57 1016.04 1016.33 1016.56 1016.89 1017.24 1017.43 1018.88 1019.61 1019.82 1019.99 1019.40 1017.90 1014.57 1014.19 1014.17 1014.12 1013.44 1013.87
1012.75 1013.02 1013.02 1013.24 1013.61 1013.88 1014.07 1014.41 1014.57 1014.80 1015.08 1015.41 1015.36 1015.17 1014.83 1013.87 1013.56 1013.61 1013.02 1013.13 1013.43 1013.32 1013.77 1013.73 1013.46 1013.46 1014.31 1015.10 1015.88 1016.50 1016.83 1016.91 1016.95 1017.52 1017.95 1017.90 1018.78 1020.06 1019.87 1019.05 1016.40 1014.06 1013.75 1013.50 1013.23 1011.51 1011.39
1011.67 1011.89 1011.95 1012.25 1012.57 1012.50 1013.11 1013.19 1013.61 1013.78 1014.03 1014.65 1014.45 1014.89 1014.04 1012.81 1012.08 1012.54 1012.55 1012.06 1012.19 1013.01 1013.70 1013.13 1013.65 1013.79 1014.15 1015.19 1015.95 1015.59 1015.59 1015.76 1016.89 1017.71 1018.23 1018.60 1018.32 1018.51 1019.86 1018.68 1016.01 1012.91 1011.54 1011.49 1011.58 1009.92 1008.59
1010.59 1010.68 1010.80 1011.02 1011.37 1011.55 1011.84 1012.31 1012.35 1012.73 1013.12 1013.63 1013.35 1013.92 1013.64 1012.21 1011.49 1011.86 1011.00 1011.06 1011.86 1011.82 1012.32 1012.94 1013.43 1014.03 1013.90 1014.94 1015.45 1015.29 1014.66 1014.39 1015.53 1016.49 1017.95 1018.64 1018.97 1018.12 1018.39 1017.04 1013.95 1011.74 1011.45 1011.51 1011.00 1008.80 1007.61
1009.27 1009.45 1009.60 1009.78 1010.19 1010.48 1010.80 1011.04 1011.35 1011.55 1011.84 1012.83 1012.27 1012.77 1013.56 1011.82 1011.44 1010.98 1010.68 1010.46 1010.79 1010.71 1011.40 1011.98 1013.15 1013.11 1013.71 1014.09 1014.61 1014.05 1013.72 1013.03 1013.65 1014.10 1014.99 1016.05 1017.11 1017.22 1017.38 1015.82 1012.67 1010.73 1011.23 1010.54 1007.97 1007.30 1007.43
1008.05 1008.31 1008.53 1008.78 1009.08 1009.33 1009.66 1009.91 1010.22 1010.52 1010.78 1011.52 1011.75 1011.75 1012.10 1012.61 1010.37 1010.16 1009.61 1009.75 1010.12 1010.02 1010.49 1011.03 1010.62 1010.93 1011.41 1012.63 1012.59 1012.57 1012.73 1012.69 1011.88 1012.59 1013.40 1013.52 1012.16 1013.29 1013.24 1010.61 1009.46 1009.11 1007.95 1007.68 1007.52 1007.58 1007.43
Wind_Speed
7 5 5 4 3 5 5 6 6 6 7 8 9 10 11 11 13 14 15 16 16 17 16 14 14 12 3 3 4 2 1 4 2 2 4 3 4 3 3 2 2 3 2 1 1 2 2
10 8 6 6 5 4 5 5 6 6 7 8 9 9 10 11 12 13 15 16 17 17 15 13 11 11 2 1 1 1 2 3 3 3 2 4 2 2 5 2 3 2 2 1 1 1 1
11 10 9 8 7 7 6 5 6 6 6 7 10 10 10 10 11 14 15 16 18 16 15 11 7 2 2 9 1 2 1 2 1 2 3 1 3 2 3 3 1 2 1 2 1 0 0
11 12 11 10 9 8 7 7 6 7 6 8 10 11 9 10 11 14 16 17 19 16 11 5 3 1 5 2 1 0 2 3 3 4 4 2 5 6 3 3 5 3 4 2 2 0 2
11 12 12 11 10 10 9 7 8 7 7 7 9 10 9 10 11 15 17 20 19 9 4 4 1 2 7 4 0 0 1 3 3 3 5 3 6 4 4 4 3 6 1 1 4 1 2
10 10 12 12 12 11 10 9 8 7 6 6 7 8 9 10 11 14 20 19 9 5 1 1 0 3 3 2 1 2 2 4 4 3 4 6 5 3 3 3 2 1 1 2 3 2 1
10 10 9 11 11 11 11 10 9 7 7 6 7 7 8 10 11 13 11 5 5 4 4 7 4 3 2 2 1 3 1 4 3 8 2 4 4 2 3 4 4 4 2 2 3 1 3
9 8 9 10 9 11 11 10 9 10 7 5 6 7 8 9 10 12 3 3 3 2 7 6 5 4 4 2 2 1 2 4 3 3 1 5 1 3 5 4 3 2 1 3 4 1 1
10 8 6 7 11 9 11 10 9 9 9 6 5 6 7 8 10 4 3 1 3 1 1 8 5 5 5 6 4 5 6 3 3 4 3 5 1 5 3 2 3 1 3 2 3 4 1
13 13 10 6 8 12 10 10 11 9 9 8 6 6 6 7 4 4 3 7 7 4 5 8 3 4 5 6 2 0 2 4 2 8 6 3 0 4 2 1 4 2 3 2 2 3 2
15 14 13 10 6 7 12 10 11 10 10 8 8 5 3 4 3 3 5 8 6 2 4 2 2 1 2 8 6 2 2 4 6 5 5 4 5 3 2 3 3 3 2 1 1 1 2
16 16 15 13 10 9 9 12 12 11 9 8 9 4 8 3 2 4 8 8 3 7 9 1 1 2 5 3 2 2 2 6 4 4 3 0 1 2 3 3 2 5 3 4 3 2 2
14 16 15 13 13 11 9 10 13 12 10 9 9 9 5 4 3 5 6 3 5 5 2 4 3 3 2 3 3 3 5 4 6 5 3 2 2 0 2 4 2 3 4 3 1 1 4
14 14 14 14 14 13 10 9 12 13 12 8 8 10 3 3 3 5 4 5 6 5 5 3 3 3 6 4 1 2 5 4 2 4 3 6 4 7 3 2 6 4 4 5 4 3 3
14 14 14 14 14 14 13 10 8 14 12 13 13 1 2 4 5 3 4 4 10 8 7 10 4 4 4 2 4 3 6 7 9 10 8 6 4 1 2 2 2 4 3 2 6 2 1
15 15 14 14 14 13 13 13 9 9 15 19 5 3 4 4 8 4 4 11 6 5 5 3 8 6 8 6 5 6 8 5 7 12 3 6 2 1 0 2 3 2 3 3 2 4 5
16 16 15 15 14 13 12 13 11 7 18 12 1 3 2 5 5 4 7 8 7 6 4 6 8 5 6 8 7 5 5 4 5 4 2 6 3 1 1 7 9 3 2 3 1 2 4
20 18 17 16 14 13 12 12 13 8 20 9 4 3 3 6 4 3 8 6 4 6 3 4 4 4 9 9 8 6 10 6 7 9 9 5 5 5 7 1 3 3 6 6 5 5 1
22 21 19 17 16 14 13 12 11 10 21 5 3 2 2 2 6 5 4 6 3 5 7 6 7 5 4 8 3 8 6 2 9 10 11 9 3 2 3 3 4 5 6 4 5 3 6
22 20 20 18 16 16 13 12 12 9 24 3 4 5 3 3 1 4 6 6 21 4 4 5 4 5 4 4 3 5 6 3 7 6 4 6 4 7 9 5 6 6 5 5 5 4 5
23 22 23 21 19 16 16 14 13 12 23 6 4 6 7 8 9 7 10 10 17 15 5 8 4 8 8 6 4 5 4 1 2 6 2 5 7 6 6 3 5 6 5 9 10 6 9
23 23 23 23 21 19 18 16 15 13 22 10 6 5 2 3 8 20 8 11 14 19 11 12 6 9 8 8 10 12 9 6 8 3 8 3 4 5 3 3 6 5 7 12 13 4 9
24 23 22 23 22 21 19 18 17 14 17 5 2 1 2 9 6 12 17 17 19 12 9 20 13 6 8 8 8 3 6 2 5 13 9 8 7 4 5 1 3 8 17 14 7 8 13
25 24 23 23 23 21 21 21 20 17 16 9 2 3 4 6 12 14 14 20 20 22 23 10 18 13 6 8 7 5 5 3 5 3 5 8 7 3 3 2 7 6 2 9 22 16 17
26 26 23 23 23 22 21 23 22 21 19 10 7 3 4 8 9 16 17 11 21 19 18 20 6 7 8 7 4 1 3 2 4 3 5 3 7 3 5 6 8 9 7 10 12 15 21
27 27 24 25 24 22 23 22 23 22 19 11 9 7 6 7 14 12 16 17 11 14 13 6 2 3 6 5 4 12 10 6 8 4 3 4 4 6 4 6 10 8 2 6 5 11 13
28 27 26 25 23 22 22 23 24 23 21 12 8 12 8 6 6 6 9 13 12 11 6 5 8 4 4 5 6 6 14 9 10 12 8 5 0 11 5 7 10 10 5 4 8 9 1
27 28 26 26 24 22 22 23 24 23 21 14 9 11 11 4 7 11 13 15 13 15 14 4 6 2 2 8 9 6 6 10 6 10 12 11 10 6 3 6 21 8 6 12 10 2 2
27 27 26 25 24 22 22 22 23 23 22 18 9 7 9 14 3 5 13 15 11 16 15 12 9 8 10 8 7 5 4 2 7 12 1 10 10 10 14 11 5 9 7 10 2 2 3
Wind_Direction
251 259 272 282 304 317 327 333 339 341 339 342 346 350 352 354 353 348 343 338 336 330 328 328 326 331 356 31 250 312 6 347 44 66 60 67 59 110 114 105 67 79 186 138 120 117 126
240 238 247 263 272 278 297 308 322 331 333 333 333 333 339 343 345 341 336 329 328 325 320 321 326 320 43 274 168 357 356 67 48 62 44 54 133 160 107 84 98 152 138 89 104 77 81
239 240 234 242 252 274 275 283 296 312 323 329 331 328 322 335 339 335 330 323 319 316 313 314 325 342 73 236 88 312 45 114 69 95 107 87 136 78 123 111 331 89 81 7 15 346 140
235 234 236 237 241 247 258 272 277 287 300 316 324 324 319 327 333 329 323 318 313 306 303 305 326 29 246 283 250 296 120 75 73 52 92 69 89 102 67 125 30 56 57 44 332 38 351
268 226 234 236 236 240 248 255 273 280 290 304 316 319 317 323 327 324 319 313 308 297 284 283 61 120 273 311 195 146 108 128 86 63 39 74 66 81 40 85 36 13 121 347 330 344 334
289 257 246 239 240 238 238 248 256 270 284 299 309 316 316 317 322 325 321 306 290 308 144 183 36 37 284 247 248 98 23 87 97 82 28 41 50 72 48 67 202 244 23 304 252 317 334
345 322 283 249 247 248 239 228 248 258 268 288 301 310 315 313 317 331 343 1 17 345 33 195 207 204 286 292 15 31 68 84 69 55 95 8 68 224 205 149 131 127 125 255 259 141 319
337 338 330 289 254 256 255 242 220 256 256 271 291 304 316 311 314 327 327 65 93 132 312 246 227 269 242 201 100 269 105 110 85 141 111 28 218 202 118 132 111 98 74 296 288 307 4
323 321 331 344 303 265 259 253 237 225 259 252 271 291 311 311 321 359 325 138 341 307 227 290 193 185 194 138 211 230 129 129 118 126 154 154 235 133 125 115 112 174 182 235 235 322 195
328 319 306 316 330 312 247 248 250 225 238 263 249 267 283 325 349 328 278 331 315 193 41 276 242 266 124 134 227 1 148 134 63 181 156 219 278 147 115 175 132 295 176 141 302 13 262
317 317 320 307 303 315 312 228 240 246 215 240 251 265 128 79 282 304 321 322 301 67 331 255 196 339 44 147 144 357 335 58 163 164 118 250 159 152 157 221 153 217 102 81 82 87 3
306 311 312 315 302 297 319 276 223 232 217 218 252 212 147 71 52 271 312 310 25 53 253 250 127 153 108 37 67 112 85 47 127 97 41 113 321 152 176 69 73 148 93 50 57 43 337
301 306 309 307 306 293 296 321 231 218 213 216 228 178 170 131 228 324 317 46 59 167 302 205 192 155 117 144 109 124 150 154 154 114 213 346 224 97 134 102 34 83 63 355 355 353 222
293 293 299 301 303 298 286 292 298 211 201 199 184 146 219 203 99 11 10 62 187 222 195 135 113 81 170 158 195 114 119 192 234 98 121 167 268 177 180 194 177 177 158 166 223 204 272
287 287 286 291 294 296 288 275 283 244 179 143 119 32 256 232 157 75 69 193 202 199 176 152 94 127 215 212 154 143 192 201 202 177 175 143 265 66 70 121 128 177 186 168 105 29 345
280 281 281 282 287 291 293 276 270 268 157 147 141 160 234 173 139 83 94 221 221 206 130 135 167 145 180 197 161 180 188 209 202 187 167 198 108 338 150 120 40 161 144 93 15 174 242
277 276 277 276 279 282 283 287 265 273 164 151 105 128 268 145 101 84 202 215 255 245 177 158 196 139 182 171 176 193 216 268 210 153 140 142 132 311 84 203 179 134 190 62 139 165 181
276 272 271 269 270 272 274 276 276 233 168 150 135 201 161 164 124 189 208 191 215 226 160 257 134 135 178 169 168 213 214 228 165 147 172 196 134 175 198 225 171 178 187 162 136 198 89
267 270 268 266 266 264 264 266 267 251 169 138 169 170 19 76 186 208 250 218 265 198 190 190 214 203 176 167 195 198 190 231 163 156 165 183 210 94 2 12 352 219 199 142 105 103 198
263 265 265 265 264 267 254 257 257 225 188 127 138 180 124 235 249 213 162 208 215 236 245 191 193 134 127 176 245 198 225 220 181 204 184 114 162 179 193 190 129 193 189 183 152 147 165
267 265 265 264 258 250 255 250 246 243 200 148 194 217 185 181 215 219 184 185 203 215 231 177 218 188 170 167 154 206 223 123 174 208 172 163 210 182 240 206 174 191 173 179 204 186 186
262 264 263 259 256 251 248 250 243 237 202 222 192 177 183 161 179 193 213 212 200 205 175 214 201 192 184 177 186 204 154 199 197 188 163 187 212 158 261 179 210 245 214 194 217 233 271
261 261 260 261 255 251 247 244 243 227 192 244 138 129 242 164 176 181 213 198 205 184 230 227 200 203 204 220 207 215 200 198 182 160 178 156 140 124 259 48 148 279 218 188 187 206 206
258 257 256 256 255 250 245 243 240 231 210 235 204 131 202 229 197 211 188 202 207 213 217 210 199 212 206 123 107 77 62 93 159 165 145 150 139 140 185 82 242 246 135 188 204 220 209
260 256 253 254 254 252 245 244 240 238 229 231 232 223 182 242 233 225 209 192 217 216 226 225 219 204 149 121 97 168 328 294 215 189 197 172 129 151 170 205 305 288 199 172 175 247 206
256 253 253 254 251 248 248 240 240 240 233 235 239 225 263 236 231 230 222 202 188 209 223 217 110 108 121 137 150 198 204 164 209 185 50 80 58 153 144 199 222 234 260 148 132 271 220
254 253 253 253 253 251 245 243 238 237 236 231 241 219 250 264 202 220 202 211 210 191 229 167 170 162 144 182 199 190 223 169 189 171 164 138 127 203 182 229 277 243 165 171 149 247 57
252 253 252 253 253 251 247 242 239 238 235 227 242 223 228 252 218 209 209 216 208 213 204 173 148 243 48 189 188 199 208 204 166 165 167 162 164 181 122 208 248 164 90 181 214 242 214
249 249 250 250 253 252 248 243 239 236 234 224 247 222 214 246 277 232 229 233 243 229 216 194 205 169 195 182 199 168 193 135 199 222 137 207 185 190 189 211 226 195 204 208 160 208 227